map of OSN home
OSN - Airport
Location
City:  Osan, Republic of Korea (South Korea)
Name:Osan AB
ICAO:RKSO
IATA:OSN

Details
Type:Airport (Aerodrome, Airfield)
Use:Military, International (customs port of entry)
Latitude:37°05'26"N (37.090617)
Longitude:127°01'47"E (127.029594)
Datum:WGS 1984
Elevation:40 ft (12 m)
Variation:8.28°W (WMM2015 magnetic declination)
-0.07° annual change
Runways:1
Longest:9004 × 150 ft (2744 × 45.5 m), paved

Time
Time Zone:UTC+9
Local Time:

Weather
METAR:RKSO 181355Z 07003KT 7SM BKN090 14/10 A3018 RMK AO2A SLP222 T01430104 $
TAF:RKSO 181100Z 1811/1917 09009KT 9999 FEW030 BKN100 QNH3007INS TX19/1906Z TN11/1820Z

Related Locations
Nearby:
Farthest:SUPE: 12248 mi / 19712 km
Punta el Este [El Jagüel Airport], MA, UY

Find:

   beyond  
but within

Other Information
Maps:
NOTAMs:
Links:
Sources:

  
flag of Republic of Korea (South Korea)   

Airport Diagram

Airport diagram for OSN

Larger airport diagram (OBSOLETE) from NGA

Sectional Chart

Flight Planning
at skyvector.com

Satellite Image

Google Maps Satellite view

 

Copyright © 2004-2017 Karl L. Swartz. All rights reserved.
The Great Circle Mapper name and logo are trademarks of the Great Circle Mapper.
All other trademarks mentioned herein belong to their respective owners.
Please see credits for attibutions and further copyright information.

  Follow gcmap on Facebook Follow gcmap on Twitter Follow gcmap on Google+ GCmap on LinkedIn

hCard Microformat

Geo Microformat